Location: Nitra
(0.0000°N, 18.0833°E)
Time: 19:10:15
(UTC+02:00)

A-11 Canister half - Pass Details

Date: 04 April 2023
Orbit: 1526 x 1682 km, 47.3° (Epoch: 08 June)

Event Time Altitude Azimuth Distance (km) Brightness Sun altitude
Rises 12:46:15 0° 247° (WSW) 4,874 11.6 84.2°
Reaches altitude 10° 12:50:02 10° 258° (WSW) 3,904 11.3 84.3°
Maximum altitude 12:58:03 27° 312° (NW) 2,796 10.9 84.0°
Drops below altitude 10° 13:06:11 10° 6° (N) 3,933 11.4 83.1°
Sets 13:10:05 0° 18° (NNE) 4,916 11.7 82.5°
